Location: Tucson
(32.2220°N, 110.9260°W)
Time: 04:54:37
(UTC-07:00)

ISS - Visible Passes

Search period start: 26 April 2017 00:00
Search period end: 06 May 2017 00:00
Orbit: 400 x 409 km, 51.6° (Epoch: 26 April)

Date Brightness Start Highest point End Pass type
(mag) Time Alt. Az. Time Alt. Az. Time Alt. Az.
01 May -0.9 04:32:23 10° SE 04:33:10 11° SE 04:33:56 10° ESE visible
03 May -2.3 04:22:38 16° S 04:24:37 30° SE 04:27:31 10° ENE visible
04 May -1.2 03:32:36 14° ESE 03:32:36 14° ESE 03:34:12 10° E visible
04 May -2.9 05:05:33 10° WSW 05:08:35 36° NW 05:11:39 10° NNE visible
05 May -3.9 04:15:06 40° SW 04:16:09 83° NW 04:19:25 10° NE visible
